HA9HP Weather Reports


time (UTC)temp
F
wind
direction
speed
knots
gust
knots
rain 1hr
in
rain 24hr
in
rain mn
in
humidity
%
barometer
mb
20260508033018 52 130 0.0 1.7 0.00 0.25 0.04 93 1014.6
20260508031521 52 133 0.0 2.6 0.00 0.25 0.04 92 1014.2
20260508030024 53 187 0.0 1.7 0.00 0.25 0.04 93 1014.2
20260508024529 53 187 0.0 1.7 0.00 0.25 0.04 92 1014.2
20260508023026 54 187 0.0 1.7 0.00 0.25 0.04 91 1014.1
20260508021520 54 198 0.0 1.7 0.00 0.25 0.04 92 1014.1
20260508020023 55 235 0.0 1.7 0.00 0.25 0.04 92 1014.1
20260508014528 56 273 0.9 1.7 0.00 0.25 0.04 92 1014.1
20260508013032 56 215 0.0 1.7 0.00 0.25 0.04 92 1014.2
20260508011527 56 223 0.9 3.5 0.00 0.25 0.04 92 1014.2
20260508010026 56 233 0.9 4.3 0.00 0.25 0.04 92 1014.2
20260508004531 56 228 0.9 1.7 0.00 0.25 0.04 91 1014.3
20260508003027 57 192 0.9 2.6 0.00 0.25 0.04 91 1014.3
20260508001530 56 192 0.9 1.7 0.00 0.25 0.04 91 1014.4
20260508000017 57 250 0.0 1.7 0.00 0.25 0.04 91 1014.5
20260507234540 57 187 0.0 2.6 0.00 0.25 0.04 91 1014.5
20260507233028 56 212 0.0 1.7 0.00 0.25 0.04 91 1014.5
20260507231529 57 202 0.0 1.7 0.02 0.25 0.04 91 1014.8
20260507230030 57 202 0.0 1.7 0.04 0.25 0.04 91 1014.8
20260507224522 57 217 0.0 1.7 0.05 0.25 0.04 90 1014.9
20260507223024 57 256 0.0 1.7 0.05 0.24 0.03 90 1015.0
20260507221533 57 215 0.0 0.0 0.04 0.22 0.02 90 1015.0
20260507220036 57 215 0.0 0.9 0.04 0.20 0.00 90 1015.0
20260507214529 57 215 0.0 1.7 0.07 0.19 0.19 90 1015.0
20260507213029 57 262 0.0 1.7 0.07 0.18 0.18 89 1015.0
20260507211528 57 250 0.9 1.7 0.07 0.18 0.18 88 1014.8
20260507210030 58 259 0.0 1.7 0.05 0.15 0.15 87 1014.6
20260507204531 58 206 0.0 0.0 0.03 0.12 0.12 86 1014.5
20260507203030 58 183 0.0 0.0 0.02 0.11 0.11 85 1014.5
20260507201525 59 169 0.0 1.7 0.02 0.11 0.11 84 1014.5
20260507200031 59 222 0.0 1.7 0.01 0.10 0.10 82 1014.3
20260507194535 60 234 0.0 1.7 0.00 0.09 0.09 79 1014.3
20260507193029 60 264 0.0 1.7 0.00 0.08 0.08 74 1014.1
20260507191530 61 260 0.0 1.7 0.00 0.08 0.08 72 1013.9
20260507190040 62 263 1.7 6.1 0.00 0.08 0.08 70 1013.5
20260507184532 62 219 0.0 1.7 0.00 0.08 0.08 72 1013.4
20260507183030 62 192 0.9 2.6 0.00 0.08 0.08 78 1013.2
20260507181528 63 197 0.9 4.3 0.00 0.08 0.08 80 1013.1
20260507180026 63 169 1.7 5.2 0.00 0.08 0.08 78 1013.0
20260507174513 64 204 2.6 5.2 0.00 0.08 0.08 75 1012.8
20260507173034 64 192 1.7 7.8 0.00 0.08 0.08 74 1012.8
20260507171521 64 148 3.5 7.8 0.00 0.08 0.08 73 1012.7
20260507170024 64 129 1.7 5.2 0.00 0.08 0.08 74 1012.6
20260507164536 64 210 0.9 3.5 0.00 0.08 0.08 75 1012.5
20260507163014 64 225 1.7 7.0 0.00 0.08 0.08 73 1012.5
20260507161518 65 163 4.3 7.8 0.00 0.08 0.08 73 1012.6
20260507160025 65 207 0.9 10.4 0.00 0.08 0.08 75 1012.5
20260507154527 65 198 2.6 7.8 0.02 0.08 0.08 78 1012.5
20260507153035 64 175 2.6 7.8 0.07 0.08 0.08 80 1012.8
20260507151516 63 153 3.5 7.0 0.08 0.08 0.08 80 1012.8
20260507150022 63 196 1.7 7.8 0.08 0.08 0.08 82 1012.8
20260507144534 64 151 2.6 10.4 0.06 0.06 0.06 79 1012.8
20260507143028 68 169 4.3 20.0 0.01 0.01 0.01 71 1012.6
20260507141529 73 200 5.2 13.0 0.00 0.00 0.00 53 1012.4
20260507140022 74 151 1.7 7.8 0.00 0.00 0.00 48 1012.1
20260507134522 74 193 2.6 7.0 0.00 0.00 0.00 47 1012.1
20260507133028 75 216 3.5 5.2 0.00 0.00 0.00 46 1012.1
20260507131528 76 284 4.3 7.8 0.00 0.00 0.00 45 1012.2
20260507130017 74 120 3.5 9.6 0.00 0.00 0.00 47 1012.3
20260507124530 73 171 2.6 7.0 0.00 0.00 0.00 49 1012.4
20260507123027 72 304 4.3 7.8 0.00 0.00 0.00 51 1012.5
20260507121528 72 190 2.6 10.4 0.00 0.00 0.00 52 1012.5
20260507120026 72 289 2.6 7.8 0.00 0.00 0.00 54 1012.7
20260507114519 71 164 1.7 9.6 0.00 0.00 0.00 58 1012.7
20260507113041 70 298 4.3 8.7 0.00 0.00 0.00 59 1012.9
20260507111537 69 175 1.7 8.7 0.00 0.00 0.00 63 1013.0
20260507110029 68 168 1.7 9.6 0.00 0.00 0.00 65 1013.1
20260507104537 67 223 1.7 9.6 0.00 0.00 0.00 66 1013.1
20260507103026 68 199 1.7 7.0 0.00 0.00 0.00 65 1013.0
20260507101528 69 202 3.5 7.8 0.00 0.00 0.00 65 1013.1
20260507100014 68 185 3.5 8.7 0.00 0.00 0.00 64 1013.1
20260507094518 69 166 4.3 9.6 0.00 0.00 0.00 63 1013.1
20260507093021 69 209 2.6 7.8 0.00 0.00 0.00 61 1012.9
20260507091527 69 142 3.5 6.1 0.00 0.00 0.00 63 1012.8
20260507090009 68 157 2.6 9.6 0.00 0.00 0.00 64 1012.7
20260507084514 67 234 3.5 9.6 0.00 0.00 0.00 64 1012.5
20260507083020 68 186 1.7 8.7 0.00 0.00 0.00 64 1012.5
20260507081534 69 301 1.7 7.8 0.00 0.00 0.00 65 1012.3
20260507080011 68 186 4.3 8.7 0.00 0.00 0.00 64 1012.3
20260507074511 67 167 2.6 10.4 0.00 0.00 0.00 68 1012.2
20260507073016 67 200 2.6 6.1 0.00 0.00 0.00 69 1012.1
20260507071521 67 188 1.7 6.1 0.00 0.00 0.00 70 1012.1
20260507070028 65 173 2.6 7.0 0.00 0.00 0.00 74 1012.1
20260507064512 65 279 1.7 7.0 0.00 0.00 0.00 76 1012.1
20260507063016 64 188 0.9 8.7 0.00 0.00 0.00 76 1012.1
20260507061518 64 194 3.5 6.1 0.00 0.00 0.00 76 1012.2
20260507060026 63 172 1.7 4.3 0.00 0.00 0.00 78 1011.9
20260507054528 62 210 0.9 1.7 0.00 0.00 0.00 81 1012.1
20260507053014 62 192 1.7 2.6 0.00 0.00 0.00 80 1011.8
20260507051518 61 313 0.0 1.7 0.00 0.00 0.00 83 1011.6
20260507050030 60 314 0.0 0.9 0.00 0.00 0.00 83 1011.5
20260507044524 59 315 0.0 1.7 0.00 0.00 0.00 86 1011.5
20260507043029 59 192 0.0 1.7 0.00 0.00 0.00 86 1011.3
20260507041515 58 151 0.0 1.7 0.00 0.00 0.00 86 1011.1
20260507040019 58 152 0.0 1.7 0.00 0.00 0.00 85 1011.0
20260507034531 59 165 0.0 1.7 0.00 0.00 0.00 85 1011.0